[[{"header":{"parameterUnit":"m.s-1","parameterCategory":1,"la1":30.2991,"la2":30.254,"lo1":-89.0895,"lo2":-89.0444,"dy":0.0017,"dx":0.0017,"nx":28,"ny":28,"refTime":"2025-08-03T21:00:00:Z","depth":0,"parameterNumber":2,"parameterNumberName":"U-component_of_WINDS"},"data":[0,0,0,0,0,0,0,0,0,0,0,0,0,0,0,0,0,0,0,0,0,0,0,0,0,0,0,0,0,0,0,0,0,0,0,0,0,0,0,0,0,0,0,0,0,0,0,0,0,0,0,0,0,0,0,0,0,0,-2.3811,-2.3812,0,-2.3874,-2.3875,-2.3875,-2.3906,-2.3906,-2.3906,-2.3906,-2.3971,-2.3972,-2.3974,0,0,0,0,0,0,0,0,0,0,0,0,0,-2.3717,-2.3719,-2.3811,-2.3812,-2.3812,-2.3874,-2.3875,-2.3876,-2.3906,-2.3906,-2.3906,-2.3906,-2.397,-2.3972,-2.3974,0,0,0,0,0,0,0,0,0,0,0,0,0,-2.3767,-2.3719,-2.3811,-2.3835,-2.3838,-2.3874,-2.3875,-2.3876,-2.3906,-2.3906,-2.3906,-2.3906,-2.3969,-2.3972,-2.3974,-2.3991,0,0,-2.3982,-2.3984,0,0,0,0,0,0,0,0,-2.3764,-2.377,-2.3831,-2.3833,-2.3837,-2.3882,-2.3865,-2.3914,-2.3906,-2.388,-2.3906,-2.3906,-2.3941,-2.3946,-2.3958,-2.3994,-2.3997,-2.3983,-2.3984,-2.3985,-2.3986,0,0,0,0,0,0,0,-2.376,-2.3768,-2.3836,-2.3832,-2.3835,-2.3843,-2.385,-2.3875,-2.391,-2.3882,-2.3885,-2.3892,-2.3943,-2.3955,-2.396,-2.3998,-2.3983,-2.3985,-2.3986,-2.3987,-2.4051,-2.4052,0,0,0,0,0,0,-2.3753,-2.3765,-2.3834,-2.3838,-2.38,-2.3845,-2.3853,-2.3868,-2.391,-2.3916,-2.3892,-2.3893,-2.3951,-2.3957,-2.3962,-2.3985,-2.3985,-2.3988,-2.3989,-2.4051,-2.4052,-2.4052,0,0,0,0,0,0,-2.3751,-2.3759,-2.3831,-2.3802,-2.3812,-2.3846,-2.3863,-2.3869,-2.3881,-2.3917,-2.3923,-2.3898,-2.3951,-2.3958,-2.3984,-2.3987,-2.3989,-2.3991,-2.4051,-2.4051,-2.4052,-2.403,0,0,0,0,0,0,-2.3748,-2.3758,-2.3764,-2.3802,-2.3813,-2.3852,-2.3863,-2.387,-2.3886,-2.3888,-2.3925,-2.3931,-2.3952,-2.398,-2.3986,-2.3991,-2.3993,-2.4051,-2.4051,-2.4052,-2.403,-2.4029,-2.4028,0,0,0,0,0,-2.3745,-2.3755,-2.3765,-2.3773,-2.3822,-2.3852,-2.3858,-2.3882,-2.3886,-2.3893,-2.3916,-2.3929,-2.3986,-2.3982,-2.399,-2.3995,-2.4051,-2.4051,-2.4052,-2.4031,-2.4029,-2.4028,0,0,0,0,0,0,-2.3717,-2.3761,-2.3771,-2.3795,-2.3819,-2.3857,-2.3866,-2.388,-2.3904,-2.3905,-2.3934,-2.3942,-2.3965,-2.3983,-2.3977,-2.4014,-2.402,-2.4022,-2.4001,-2.4,-2.3999,-2.3994,-2.3995,0,0,0,0,0,-2.3714,-2.3735,-2.3772,-2.3788,-2.38,-2.3831,-2.3845,-2.3861,-2.3888,-2.3899,-2.3923,-2.3949,-2.3973,-2.3988,-2.4011,-2.4033,-2.4042,-2.4041,-2.404,-2.4039,-2.404,-2.4054,-2.4054,-2.4053,-2.4053,-2.4053,0,0,-2.3707,-2.3734,-2.3745,-2.3784,-2.3805,-2.3825,-2.384,-2.3861,-2.3877,-2.3902,-2.3927,-2.3947,-2.3977,-2.4001,-2.4013,-2.4017,-2.4042,-2.4039,-2.4038,-2.404,-2.4054,-2.4054,-2.4054,-2.4053,-2.4053,-2.4053,0,0,-2.3706,-2.3728,-2.3744,-2.3765,-2.3797,-2.3818,-2.3822,-2.3858,-2.3871,-2.3897,-2.3917,-2.3937,-2.3976,-2.3998,-2.4014,-2.4021,-2.4035,-2.4028,-2.4022,-2.4036,-2.4036,-2.4036,-2.4039,-2.404,-2.4029,-2.4029,-2.4029,0,-2.3693,-2.3725,-2.3751,-2.3772,-2.3788,-2.3813,-2.383,-2.3849,-2.3887,-2.3898,-2.3902,-2.3953,-2.3975,-2.4005,-2.4007,-2.4019,-2.4025,-2.4024,-2.4033,-2.4034,-2.4035,-2.4038,-2.4039,-2.4028,-2.4028,-2.4028,-2.4028,0,-2.3708,-2.3731,-2.374,-2.3777,-2.3795,-2.3813,-2.3842,-2.3857,-2.3873,-2.3893,-2.392,-2.3947,-2.3977,-2.3986,-2.4001,-2.4018,-2.4019,-2.4028,-2.4034,-2.4033,-2.4037,-2.4038,-2.4027,-2.4027,-2.4027,-2.4028,0,0,-2.369,-2.3742,-2.3745,-2.3762,-2.3799,-2.3817,-2.3837,-2.3867,-2.3879,-2.3905,-2.3923,-2.3957,-2.3965,-2.3983,-2.4001,-2.4013,-2.4017,-2.402,-2.4021,-2.4019,-2.4039,-2.4032,-2.4032,-2.4027,-2.4027,-2.4028,-2.4036,0,-2.3694,-2.3731,-2.3756,-2.3783,-2.3804,-2.3828,-2.3846,-2.3871,-2.3891,-2.3912,-2.3934,-2.3957,-2.3967,-2.3978,-2.399,-2.4014,-2.4022,-2.4014,-2.4044,-2.4045,-2.4036,-2.4034,-2.4027,-2.4033,-2.4038,-2.4038,-2.4038,0,-2.3703,-2.3728,-2.3758,-2.3794,-2.3804,-2.3819,-2.3848,-2.3868,-2.3897,-2.3911,-2.3932,-2.395,-2.3973,-2.3978,-2.401,-2.4004,-2.4019,-2.4032,-2.4033,-2.4037,-2.4041,-2.4038,-2.4036,-2.4037,-2.404,-2.404,-2.404,0,-2.3687,-2.3728,-2.3752,-2.3766,-2.3808,-2.3818,-2.3837,-2.3866,-2.3883,-2.3909,-2.392,-2.3948,-2.3963,-2.3985,-2.4011,-2.4012,-2.4041,-2.4048,-2.4053,-2.4052,-2.4058,-2.4057,-2.4058,-2.4067,-2.4067,-2.4067,-2.4067,0,-2.3688,-2.3705,-2.3745,-2.3759,-2.378,-2.3808,-2.3828,-2.3848,-2.3874,-2.3893,-2.3916,-2.3933,-2.3966,-2.3988,-2.4008,-2.4032,-2.4039,-2.4051,-2.4056,-2.4049,-2.4047,-2.4058,-2.4058,-2.4067,-2.4067,-2.4067,-2.4067,0,-2.3673,-2.3701,-2.3728,-2.3766,-2.3776,-2.3789,-2.3822,-2.3837,-2.3859,-2.3883,-2.389,-2.3924,-2.3951,-2.3979,-2.4015,-2.4029,-2.4052,-2.4059,-2.4042,-2.4045,-2.4049,-2.4048,-2.4057,-2.4059,-2.4066,-2.4066,-2.4066,0,-2.3672,-2.3686,-2.3726,-2.374,-2.3758,-2.3781,-2.3798,-2.3827,-2.3844,-2.3879,-2.389,-2.3918,-2.3943,-2.3985,-2.4013,-2.4041,-2.4049,-2.405,-2.4053,-2.4046,-2.4049,-2.4048,-2.405,-2.4049,-2.4049,-2.4048,-2.4048,0,-2.3667,-2.368,-2.3704,-2.3733,-2.3752,-2.3776,-2.3801,-2.3812,-2.3846,-2.3864,-2.3892,-2.391,-2.3948,-2.3976,-2.4008,-2.4028,-2.4044,-2.4047,-2.405,-2.4042,-2.4032,-2.4038,-2.4039,-2.4047,-2.4047,-2.4047,-2.4047,-2.4047,-2.3659,-2.3673,-2.3703,-2.3729,-2.3751,-2.3774,-2.379,-2.3814,-2.3838,-2.387,-2.3886,-2.3914,-2.3944,-2.3989,-2.4008,-2.4031,-2.4035,-2.4039,-2.404,-2.4041,-2.4039,-2.4029,-2.4037,-2.4037,-2.4037,-2.4037,-2.4037,0,-2.3655,-2.3676,-2.37,-2.3734,-2.3755,-2.3769,-2.3797,-2.3814,-2.3838,-2.3864,-2.3888,-2.3921,-2.3949,-2.3979,-2.4009,-2.4021,-2.403,-2.4028,-2.4028,-2.4032,-2.4033,-2.4028,-2.4021,-2.4021,-2.4021,-2.4021,-2.4021,-2.4021,-2.3656,-2.368,-2.3697,-2.3732,-2.3753,-2.3781,-2.3796,-2.3818,-2.3839,-2.3874,-2.3898,-2.3917,-2.3946,-2.3978,-2.4005,-2.4013,-2.4023,-2.402,-2.403,-2.4031,-2.4032,-2.4033,-2.4028,-2.4022,-2.4022,-2.4027,-2.4027,-2.4027]},{"header":{"parameterUnit":"m.s-1","parameterCategory":1,"la1":30.2991,"la2":30.254,"lo1":-89.0895,"lo2":-89.0444,"dy":0.0017,"dx":0.0017,"nx":28,"ny":28,"refTime":"2025-08-03T21:00:00:Z","depth":0,"parameterNumber":3,"parameterNumberName":"V-component_of_WINDS"},"data":[0,0,0,0,0,0,0,0,0,0,0,0,0,0,0,0,0,0,0,0,0,0,0,0,0,0,0,0,0,0,0,0,0,0,0,0,0,0,0,0,0,0,0,0,0,0,0,0,0,0,0,0,0,0,0,0,0,0,2.1765,2.1763,0,2.1612,2.161,2.1609,2.1572,2.1573,2.1575,2.1575,2.1414,2.1409,2.1404,0,0,0,0,0,0,0,0,0,0,0,0,0,2.202,2.2016,2.1765,2.1763,2.1761,2.1613,2.161,2.1608,2.1572,2.1574,2.1575,2.1576,2.1416,2.1409,2.1403,0,0,0,0,0,0,0,0,0,0,0,0,0,2.1892,2.2014,2.1765,2.1725,2.172,2.1613,2.161,2.1608,2.1572,2.1574,2.1575,2.1577,2.1418,2.141,2.1402,2.1322,0,0,2.1378,2.1375,0,0,0,0,0,0,0,0,2.19,2.1883,2.1733,2.1728,2.1722,2.1613,2.1641,2.1512,2.1572,2.1628,2.1576,2.1577,2.1479,2.1466,2.1433,2.1315,2.1308,2.1377,2.1373,2.1369,2.1367,0,0,0,0,0,0,0,2.1909,2.1889,2.1704,2.1731,2.1724,2.1713,2.1697,2.1616,2.1546,2.1623,2.162,2.1603,2.1476,2.1441,2.1429,2.1305,2.1378,2.1371,2.1366,2.1363,2.1113,2.1111,0,0,0,0,0,0,2.1925,2.1897,2.1709,2.17,2.1817,2.1708,2.1689,2.1646,2.1547,2.1533,2.1602,2.1602,2.1454,2.1439,2.1424,2.1323,2.1369,2.1362,2.1357,2.1115,2.1113,2.1111,0,0,0,0,0,0,2.1931,2.1909,2.1715,2.1797,2.1772,2.1702,2.1654,2.1642,2.1608,2.1531,2.1518,2.158,2.1455,2.1435,2.1348,2.1317,2.1358,2.1351,2.1117,2.1114,2.1112,2.1122,0,0,0,0,0,0,2.1938,2.1911,2.1881,2.1797,2.1768,2.1643,2.1652,2.1638,2.1595,2.1594,2.1507,2.1494,2.1454,2.136,2.134,2.1307,2.1345,2.112,2.1116,2.1113,2.1124,2.1119,2.1116,0,0,0,0,0,2.1947,2.1888,2.1879,2.1857,2.1729,2.1642,2.1625,2.1582,2.1593,2.1561,2.1512,2.1496,2.1324,2.1352,2.1329,2.1293,2.1121,2.1117,2.1113,2.1125,2.112,2.1116,0,0,0,0,0,0,2.1968,2.1877,2.1866,2.1778,2.1718,2.1636,2.1594,2.1578,2.1512,2.1514,2.1462,2.1443,2.1359,2.1317,2.1349,2.121,2.1223,2.1214,2.124,2.1235,2.1231,2.1242,2.1338,0,0,0,0,0,2.1963,2.1901,2.1824,2.1754,2.1725,2.1665,2.1626,2.1598,2.1533,2.1507,2.1451,2.1388,2.1319,2.1275,2.1207,2.1118,2.1098,2.1082,2.1078,2.1076,2.1068,2.1017,2.1009,2.1097,2.1097,2.1097,0,0,2.195,2.1893,2.1856,2.1757,2.1707,2.1643,2.1644,2.1576,2.1527,2.1496,2.1411,2.1369,2.1294,2.1206,2.1164,2.1168,2.1039,2.107,2.1068,2.1062,2.1012,2.1004,2.0996,2.1094,2.1094,2.1095,0,0,2.1894,2.1845,2.1782,2.1733,2.1658,2.1619,2.1604,2.1525,2.1496,2.141,2.1386,2.1327,2.121,2.1158,2.1116,2.1043,2.1026,2.1022,2.1001,2.0952,2.0945,2.0939,2.0912,2.0903,2.1015,2.1015,2.1015,0,2.1887,2.1791,2.175,2.1684,2.164,2.1612,2.1546,2.15,2.1407,2.1377,2.1384,2.1237,2.1185,2.1084,2.1067,2.1034,2.1014,2.1031,2.095,2.0943,2.0936,2.091,2.09,2.1015,2.1015,2.1015,2.1015,0,2.1786,2.172,2.1677,2.159,2.1542,2.1477,2.1425,2.1381,2.1358,2.1318,2.1231,2.1168,2.1088,2.1062,2.1039,2.0958,2.0963,2.0961,2.0972,2.0929,2.0903,2.0892,2.1015,2.1015,2.1015,2.1015,0,0,2.1736,2.163,2.1614,2.1575,2.1492,2.1439,2.1372,2.1295,2.1258,2.1196,2.1137,2.104,2.1038,2.0991,2.0961,2.0919,2.0864,2.0921,2.0919,2.0912,2.077,2.0772,2.0761,2.0854,2.0851,2.085,2.0776,0,2.1669,2.155,2.1512,2.1412,2.135,2.1323,2.1265,2.1207,2.1168,2.1109,2.1066,2.0997,2.1,2.0971,2.0929,2.088,2.0835,2.0885,2.0797,2.0794,2.0815,2.0747,2.0748,2.0681,2.0766,2.0764,2.0763,0,2.1574,2.1512,2.1407,2.1333,2.1305,2.1253,2.118,2.1125,2.1059,2.1033,2.0982,2.0956,2.0884,2.0902,2.0801,2.0836,2.0798,2.0769,2.0766,2.0754,2.0775,2.0732,2.0659,2.0649,2.0747,2.0748,2.0749,0,2.1547,2.1437,2.136,2.1327,2.1239,2.1203,2.1164,2.11,2.1057,2.0993,2.0964,2.0892,2.0852,2.0796,2.0751,2.0768,2.0654,2.0668,2.063,2.0631,2.0605,2.0607,2.0523,2.0584,2.0584,2.0584,2.0584,0,2.1475,2.1411,2.1347,2.1299,2.1227,2.1184,2.1113,2.1072,2.1016,2.0959,2.0931,2.0878,2.0823,2.0762,2.0727,2.0649,2.0631,2.0607,2.0598,2.0609,2.0612,2.0582,2.0585,2.0581,2.0582,2.0582,2.0583,0,2.1432,2.1386,2.13,2.1225,2.1204,2.1154,2.1088,2.104,2.1002,2.093,2.0911,2.0849,2.0777,2.0728,2.0634,2.061,2.0525,2.0517,2.0547,2.0543,2.0507,2.0511,2.04,2.0382,2.0456,2.0455,2.0455,0,2.1388,2.1339,2.1259,2.1219,2.1181,2.1118,2.1075,2.1031,2.0986,2.0908,2.0869,2.0795,2.0733,2.0619,2.0564,2.0493,2.0482,2.0449,2.0471,2.0484,2.048,2.0483,2.0478,2.0444,2.0444,2.0443,2.0443,0,2.1315,2.1295,2.1234,2.1165,2.1115,2.1058,2.1001,2.097,2.0916,2.0867,2.0794,2.0746,2.0652,2.0578,2.0502,2.0461,2.0442,2.0437,2.0424,2.0433,2.0452,2.044,2.0536,2.0439,2.0439,2.044,2.044,2.044,2.1268,2.1223,2.1161,2.1093,2.1047,2.0994,2.0946,2.0902,2.0841,2.0762,2.074,2.0663,2.0598,2.0495,2.0452,2.0391,2.0393,2.0375,2.037,2.0366,2.0365,2.0464,2.0377,2.0377,2.0377,2.0377,2.0377,0,2.1193,2.1152,2.1091,2.1013,2.096,2.0951,2.0887,2.0843,2.0777,2.0719,2.066,2.0576,2.0505,2.0446,2.0373,2.0335,2.0325,2.0317,2.0318,2.0309,2.0367,2.0385,2.0327,2.0327,2.0327,2.0327,2.0327,2.0327,2.1147,2.107,2.1044,2.0943,2.0902,2.0828,2.0793,2.0744,2.0698,2.0606,2.0548,2.0511,2.0453,2.0375,2.031,2.0294,2.0268,2.0262,2.0244,2.0299,2.0305,2.031,2.0327,2.0257,2.0257,2.0191,2.019,2.019]}]]